Hinckley, MN

7:51 PM CST on February 24, 2017 (GMT -0600)
Hinckley

Weather History for K04W - October, 2011

Change the Weather History Date:

Sunday, October 30, 2011

  Actual Average (KJMR) Record (KJMR)
Temperature  
Mean Temperature 40 °F -  
Max Temperature 46 °F 51 °F 78 °F (1950)
Min Temperature 32 °F 27 °F 4 °F (1984)
Degree Days  
Heating Degree Days 24    
Moisture  
Dew Point 32 °F    
Average Humidity 68    
Maximum Humidity 100    
Minimum Humidity 57    
Precipitation  
Precipitation 0.00 in - - ()
Sea Level Pressure  
Sea Level Pressure 29.86 in    
Wind  
Wind Speed 4 mph (ESE)    
Max Wind Speed 9 mph    
Max Gust Speed -    
Visibility 10 miles    
Events      
Averages and records for this station are not official NWS values.
T = Trace of Precipitation, MM = Missing Value Source: NWS Daily Summary

Daily Weather History Graph

Daily Weather History Graph

Search for Another Location

Airport or City:

Trip Planner

Search our weather history database for the weather conditions in past years. The results will help you decide how hot, cold, wet, or windy it might be!

Date:

Astronomy

Oct. 30, 2011 Rise Set
Actual Time 7:48 AM CDT 6:00 PM CDT
Civil Twilight 7:17 AM CDT 6:31 PM CDT
Nautical Twilight 6:42 AM CDT 7:07 PM CDT
Astronomical Twilight 6:08 AM CDT 7:41 PM CDT
Moon 12:18 PM CDT (10/30) 9:21 PM CDT (10/30)
Length of Visible Light 11h 13m
Length of Day
10h 11m
Waxing Crescent, 20% of the Moon is Illuminated
Oct 30
Waxing Crescent
Nov 2
First Quarter
Nov 10
Full
Nov 18
Last Quarter
Nov 25
New

Hourly Weather History & Observations

Time (CDT) Temp. Windchill Dew Point Humidity Pressure Visibility Wind Dir Wind Speed Gust Speed Precip Events Conditions
12:15 AM 41.0 °F 38.0 °F 26.6 °F 57% 29.93 in 10.0 mi ESE 4.6 mph - N/A   Overcast
12:35 AM 41.0 °F 39.0 °F 28.4 °F 61% 29.93 in 10.0 mi ESE 3.5 mph - N/A   Mostly Cloudy
12:55 AM 41.0 °F 39.0 °F 28.4 °F 61% 29.92 in 10.0 mi East 3.5 mph - N/A   Overcast
1:15 AM 41.0 °F 38.0 °F 28.4 °F 61% 29.92 in 10.0 mi East 4.6 mph - N/A   Overcast
1:35 AM 41.0 °F 36.4 °F 28.4 °F 61% 29.91 in 10.0 mi East 6.9 mph - N/A   Overcast
1:55 AM 41.0 °F 35.8 °F 28.4 °F 61% 29.90 in 10.0 mi ESE 8.1 mph - N/A   Overcast
2:15 AM 42.8 °F 37.5 °F 28.4 °F 57% 29.90 in 10.0 mi ESE 9.2 mph - N/A   Overcast
2:35 AM 41.0 °F 36.4 °F 28.4 °F 61% 29.89 in 10.0 mi East 6.9 mph - N/A   Mostly Cloudy
2:55 AM 41.0 °F 37.1 °F 28.4 °F 61% 29.88 in 10.0 mi East 5.8 mph - N/A   Overcast
3:15 AM 42.8 °F 41.1 °F 28.4 °F 57% 29.88 in 10.0 mi ESE 3.5 mph - N/A   Overcast
3:35 AM 41.0 °F 38.0 °F 28.4 °F 61% 29.87 in 10.0 mi ESE 4.6 mph - N/A   Mostly Cloudy
3:55 AM 41.0 °F 37.1 °F 28.4 °F 61% 29.86 in 10.0 mi East 5.8 mph - N/A   Mostly Cloudy
4:15 AM 42.8 °F 39.3 °F 28.4 °F 57% 29.86 in 10.0 mi East 5.8 mph - N/A   Overcast
4:35 AM 42.8 °F 39.3 °F 28.4 °F 57% 29.84 in 10.0 mi East 5.8 mph - N/A   Overcast
4:55 AM 42.8 °F 38.0 °F 28.4 °F 57% 29.84 in 10.0 mi East 8.1 mph - N/A   Overcast
5:15 AM 42.8 °F 40.1 °F 28.4 °F 57% 29.83 in 10.0 mi East 4.6 mph - N/A   Mostly Cloudy
5:55 AM 41.0 °F 37.1 °F 28.4 °F 61% 29.83 in 10.0 mi East 5.8 mph - N/A   Overcast
6:15 AM 41.0 °F 35.8 °F 28.4 °F 61% 29.82 in 10.0 mi East 8.1 mph - N/A   Overcast
7:15 AM 41.0 °F 39.0 °F 28.4 °F 61% 29.83 in 10.0 mi SE 3.5 mph - N/A   Scattered Clouds
7:35 AM 41.0 °F 37.1 °F 28.4 °F 61% 29.82 in 10.0 mi East 5.8 mph - N/A   Mostly Cloudy
7:55 AM 37.4 °F 34.9 °F 28.4 °F 70% 29.82 in 10.0 mi East 3.5 mph - N/A   Scattered Clouds
8:15 AM 37.4 °F 34.9 °F 28.4 °F 70% 29.83 in 10.0 mi East 3.5 mph - N/A   Clear
8:35 AM 39.2 °F 35.9 °F 30.2 °F 70% 29.83 in 10.0 mi East 4.6 mph - N/A   Clear
8:55 AM 39.2 °F 35.9 °F 30.2 °F 70% 29.82 in 10.0 mi East 4.6 mph - N/A   Clear
9:15 AM 42.8 °F 39.3 °F 30.2 °F 61% 29.82 in 10.0 mi East 5.8 mph - N/A   Clear
9:35 AM 42.8 °F 38.6 °F 30.2 °F 61% 29.82 in 10.0 mi ESE 6.9 mph - N/A   Clear
9:55 AM 44.6 °F 41.4 °F 32.0 °F 61% 29.82 in 10.0 mi ESE 5.8 mph - N/A   Clear
10:15 AM 42.8 °F 39.3 °F 32.0 °F 66% 29.82 in 10.0 mi ESE 5.8 mph - N/A   Scattered Clouds
10:35 AM 42.8 °F 39.3 °F 30.2 °F 61% 29.82 in 10.0 mi ESE 5.8 mph - N/A   Scattered Clouds
10:55 AM 44.6 °F 41.4 °F 32.0 °F 61% 29.81 in 10.0 mi ESE 5.8 mph - N/A   Clear
11:15 AM 44.6 °F 42.2 °F 32.0 °F 61% 29.81 in 10.0 mi ESE 4.6 mph - N/A   Scattered Clouds
11:35 AM 44.6 °F 41.4 °F 30.2 °F 57% 29.82 in 10.0 mi ESE 5.8 mph - N/A   Mostly Cloudy
11:55 AM 46.4 °F 42.9 °F 32.0 °F 57% 29.82 in 10.0 mi SE 6.9 mph - N/A   Overcast
12:35 PM 46.4 °F 43.5 °F 32.0 °F 57% 29.82 in 10.0 mi ESE 5.8 mph - N/A   Overcast
1:15 PM 46.4 °F 43.5 °F 32.0 °F 57% 29.81 in 10.0 mi SE 5.8 mph - N/A   Overcast
1:35 PM 46.4 °F 42.4 °F 32.0 °F 57% 29.81 in 10.0 mi ESE 8.1 mph - N/A   Overcast
1:55 PM 44.6 °F 40.7 °F 32.0 °F 61% 29.81 in 10.0 mi SSE 6.9 mph - N/A   Overcast
2:15 PM 44.6 °F 40.7 °F 33.8 °F 66% 29.81 in 10.0 mi South 6.9 mph - N/A   Overcast
2:55 PM 44.6 °F 43.1 °F 33.8 °F 66% 29.81 in 10.0 mi SSE 3.5 mph - N/A   Overcast
3:15 PM 44.6 °F 43.1 °F 33.8 °F 66% 29.81 in 10.0 mi South 3.5 mph - N/A   Overcast
3:35 PM 44.6 °F 43.1 °F 33.8 °F 66% 29.81 in 10.0 mi South 3.5 mph - N/A   Overcast
3:55 PM 44.6 °F - 33.8 °F 66% 29.82 in 10.0 mi Calm Calm - N/A   Overcast
4:15 PM 44.6 °F - 33.8 °F 66% 29.83 in 10.0 mi Calm Calm - N/A   Overcast
4:35 PM 44.6 °F - 33.8 °F 66% 29.83 in 10.0 mi Calm Calm - N/A   Overcast
4:55 PM 44.6 °F - 33.8 °F 66% 29.84 in 10.0 mi Calm Calm - N/A   Overcast
5:35 PM 42.8 °F 41.1 °F 33.8 °F 70% 29.85 in 10.0 mi SE 3.5 mph - N/A   Overcast
5:55 PM 42.8 °F 40.1 °F 35.6 °F 76% 29.86 in 10.0 mi ESE 4.6 mph - N/A   Overcast
6:15 PM 42.8 °F 41.1 °F 35.6 °F 76% 29.88 in 10.0 mi East 3.5 mph - N/A   Overcast
6:55 PM 42.8 °F - 35.6 °F 76% 29.89 in 10.0 mi Calm Calm - N/A   Overcast
7:15 PM 42.8 °F - 35.6 °F 76% 29.89 in 10.0 mi Calm Calm - N/A   Overcast
7:35 PM 42.8 °F - 35.6 °F 76% 29.90 in 10.0 mi Calm Calm - N/A   Overcast
7:55 PM 42.8 °F - 35.6 °F 76% 29.90 in 10.0 mi Calm Calm - N/A   Overcast
8:15 PM 41.0 °F - 35.6 °F 81% 29.91 in 10.0 mi Calm Calm - N/A   Overcast
8:35 PM 41.0 °F - 35.6 °F 81% 29.91 in 10.0 mi Calm Calm - N/A   Overcast
8:55 PM 41.0 °F - 35.6 °F 81% 29.91 in 10.0 mi Calm Calm - N/A   Overcast
9:15 PM 41.0 °F - 35.6 °F 81% 29.91 in 10.0 mi Calm Calm - N/A   Overcast
9:35 PM 41.0 °F - 35.6 °F 81% 29.92 in 10.0 mi Calm Calm - N/A   Overcast
9:55 PM 41.0 °F - 35.6 °F 81% 29.92 in 10.0 mi Calm Calm - N/A   Overcast
10:15 PM 41.0 °F 39.0 °F 35.6 °F 81% 29.91 in 10.0 mi East 3.5 mph - N/A   Overcast
10:35 PM 37.4 °F 34.9 °F 35.6 °F 93% 29.91 in 10.0 mi East 3.5 mph - N/A   Mostly Cloudy
10:55 PM 37.4 °F 34.9 °F 35.6 °F 93% 29.91 in 10.0 mi East 3.5 mph - N/A   Mostly Cloudy
11:15 PM 35.6 °F - 33.8 °F 93% 29.92 in 10.0 mi Calm Calm - N/A   Scattered Clouds
11:35 PM 35.6 °F - 33.8 °F 93% 29.92 in 10.0 mi Calm Calm - N/A   Clear
11:55 PM 32.0 °F - 32.0 °F 100% 29.93 in 7.0 mi Calm Calm - N/A   Clear